AirNav   Air Wisconsin Up To $57,000 Bonus
 
 1390 users online  

AZ45 China Peak Observatory Airport
Klondyke, Arizona, USA

GOING TO KLONDYKE?


FAA INFORMATION EFFECTIVE 22 APRIL 2021

Location

FAA Identifier: AZ45
Lat/Long: 32-43-45.2450N 110-17-47.3110W
32-43.754083N 110-17.788517W
32.7292347,-110.2964753
(estimated)
Elevation: 4800 ft. / 1463 m (estimated)
Variation: 12E (1985)
From city: 7 miles SE of KLONDYKE, AZ
Time zone: UTC -7 (year round; does not observe DST)
Zip code: 85643

Airport Operations

Airport use: Private use. Permission required prior to landing
Activation date: 07/1989
Control tower: no
ARTCC: ALBUQUERQUE CENTER
FSS: PRESCOTT FLIGHT SERVICE STATION
Attendance: IREG
Wind indicator: yes
Segmented circle: no

Airport Communications

WX AWOS-3PT at E77 (19 nm W): 134.125 (520-385-4238)

Airport Services

Runway Information

Runway 1/19

Dimensions: 4500 x 150 ft. / 1372 x 46 m
Surface: turf
RUNWAY 1  RUNWAY 19
Traffic pattern: leftleft

Runway 4/22

Dimensions: 3100 x 125 ft. / 945 x 38 m
Surface: turf
RUNWAY 4  RUNWAY 22
Traffic pattern: leftleft

Runway 15/33

Dimensions: 1950 x 110 ft. / 594 x 34 m
Surface: turf
RUNWAY 15  RUNWAY 33
Traffic pattern: leftleft

Runway 12/30

Dimensions: 1650 x 120 ft. / 503 x 37 m
Surface: turf
RUNWAY 12  RUNWAY 30
Traffic pattern: leftleft

Airport Ownership and Management from official FAA records

Ownership: Privately-owned
Owner: D. MORRIS
2525 E CAPITAN DREYFUS AVE
PHOENIX, AZ 85032
Phone 602-267-7447
Manager: NONE

Airport Operational Statistics

Aircraft based on the field: 1
Single engine airplanes: 1
    

Additional Remarks

FOR CD CTC ALBUQUERQUE ARTCC AT 505-856-4861.

Instrument Procedures

There are no published instrument procedures at AZ45.

Some nearby airports with instrument procedures:

KSAD - Safford Regional Airport (34 nm E)
P33 - Cochise County Airport (35 nm SE)
P13 - San Carlos Apache Airport (42 nm NW)
KDMA - Davis Monthan Air Force Base (45 nm SW)
KTUS - Tucson International Airport (49 nm SW)
 
Loc | Ops | Rwys | IFR | FBO | Links
Com | Nav | Svcs | Stats | Notes
Area around AZ45 (China Peak Observatory Airport)
 
Road maps at: MapQuest Bing Google
 
Aerial photo
No photo
 
Sectional chart

 
Airport distance calculator
Flying to China Peak Observatory Airport? Find the distance to fly.

From to AZ45

Sunrise and sunset
Times for 14-May-2021
 Local
(UTC-7)
 Zulu
(UTC)
Morning civil twilight04:5711:57
Sunrise05:2412:24
Sunset19:1102:11
Evening civil twilight19:3802:38

Current date and time
Zulu (UTC)  14-May-2021 21:06:39
Local (UTC-7)  14-May-2021 14:06:39
 
METAR
KSAD 
34nm E 
142051Z AUTO 02008KT 10SM CLR 36/M01 A2988 RMK AO2 SLP060 T03561006 58033
KDMA 
44nm SW 
142058Z AUTO 28011G16KT 10SM CLR 35/M03 A2988 RMK AO2 SLP073 T03491027 57029 $
KTUS 
49nm SW 
142053Z 29010G17KT 10SM CLR 36/M03 A2990 RMK AO2 SLP072 T03611033 58029
TAF
KDMA 
44nm SW 
141418Z 1414/1520 VRB06KT 9999 FEW100 QNH3004INS BECMG 1423/1424 26010G15KT 9999 FEW100 QNH2984INS BECMG 1502/1503 VRB06KT 9999 SCT100 QNH2989INS BECMG 1508/1509 12009KT 9999 FEW100 QNH2993INS BECMG 1515/1516 23009KT 9999 SKC QNH2994INS TX34/1422Z TN19/1512Z
KTUS 
49nm SW 
141720Z 1418/1518 13008KT P6SM SKC FM141900 26014G22KT P6SM SCT140 FM150400 22008KT P6SM FEW140 FM150800 15007KT P6SM SKC
NOTAMs
Click for the latest NOTAMs
NOTAMs are issued by the DoD/FAA and will open in a separate window not controlled by AirNav.

 

 
 

Would you like to see your business listed on this page?

 If your business provides an interesting product or service to pilots, flight crews, aircraft, or users of the China Peak Observatory Airport, you should consider listing it here.  To start the listing process, click on the button below
 
Add a business
 

Other Pages about China Peak Observatory Airport

Update a link
 
Copyright © AirNav, LLC. All rights reserved. Privacy Policy  Contact